Location: 22
(39.7117°N, 89.5929°W)
Time: 10:11:44
(UTC-05:00)

Transit 2A - Pass Details

Date: 04 August 2024
Orbit: 590 x 961 km, 66.7° (Epoch: 13 September)

Event Time Altitude Azimuth Distance (km) Brightness Sun altitude
Rises 14:11:20 0° 333° (NNW) 3,642 9.4 63.0°
Reaches altitude 10° 14:13:57 10° 337° (NNW) 2,702 8.8 62.7°
Maximum altitude 14:20:16 62° 58° (ENE) 1,065 7.4 61.9°
Drops below altitude 10° 14:26:22 10° 138° (SE) 2,608 8.9 61.1°
Sets 14:28:51 0° 142° (SE) 3,507 9.5 60.8°
